Regional Weather Roundup
Issued by NWS Sterling, VA

Home | Current Version | Previous Version | Text Only | Print | Product List | Glossary Off
Versions: 1 2 3 4 5 6 7 8 9 10 11 12 13 14 15 16 17 18 19 20 21 22 23 24 25 26 27 28 29 30 31 32 33 34 35 36 37 38 39 40 41 42 43 44 45 46 47 48 49 50

000
ASUS41 KLWX 302010
RWRLWX

REGIONAL WEATHER ROUNDUP
NATIONAL WEATHER SERVICE BALTIMORE MD/WASHINGTON DC
400 PM EDT SAT AUG 30 2014

Note: "FAIR" indicates few or no clouds below 12,000 feet
with no significant weather and/or obstructions to visibility.
 TC=TEMPERATURE CELSIUS

 * =Non NWS site. Station does not report precipitation (e.g. rain,
    snow, etc.), thunder, or fog.

DCZ001-MDZ009-015-VAZ040>042-051-053>054-302100-
WASHINGTON METRO

CITY           SKY/WX    TMP DP  RH WIND       PRES   REMARKS
WASHINGTON NAT PTSUNNY   85  68  56 S7        30.15F
DULLES         PTSUNNY   79  69  71 S7        30.15F
ANDREWS AFB    CLOUDY    82  71  67 SE9       30.15F
QUANTICO       PTSUNNY   83  70  64 S5        30.15F
COLLEGE PARK*  CLOUDY    86  68  54 S7        30.14F
LEESBURG*      CLOUDY    82  72  69 S12       30.15F
MANASSAS*      CLOUDY    81  72  74 SE8       30.14F
GAITHERSBURG*  CLOUDY    81  68  65 S7        30.19F

$$

MDZ006>007-011-014-302100-
BALTIMORE METRO

CITY           SKY/WX    TMP DP  RH WIND       PRES   REMARKS
BWI AIRPORT    PTSUNNY   80  68  66 S7        30.15F
MD SCIENCE CTR   N/A     79  65  62 MISG      30.16F
MARTIN STATE   PTSUNNY   81  68  65 SE9       30.18F
ANNAPOLIS      SUNNY     80  66  62 S9        30.16F
FORT MEADE*    PTSUNNY   81  68  65 SE8       30.17F

$$

MDZ012-015-019>023-302100-
MARYLAND EASTERN SHORE

CITY           SKY/WX    TMP DP  RH WIND       PRES   REMARKS
OCEAN CITY     SUNNY     78  66  66 S9        30.20F
SALISBURY      MOSUNNY   85  65  51 SE10      30.17F
BAY BRIDGE AP*   N/A     81  59  47 S8        30.16F
CAMBRIDGE*     MOSUNNY   82  64  54 S10       30.16F
EASTON*        MOSUNNY   84  66  54 S8        30.20F

$$

MDZ017>025-302100-
SOUTHERN MARYLAND

CITY           SKY/WX    TMP DP  RH WIND       PRES   REMARKS
PATUXENT RIVER MOSUNNY   83  67  58 SE14G21   30.16F
ST INIGOES     SUNNY     82  66  58 SE10      30.16F
LEONARDTOWN*   CLOUDY    82  66  57 CALM      30.17F

$$

MDZ003>005-302100-
NORTH CENTRAL MARYLAND

CITY           SKY/WX    TMP DP  RH WIND       PRES   REMARKS
FREDERICK*     CLOUDY    82  72  69 S6        30.17F
HAGERSTOWN APT PTSUNNY   79  67  66 S9        30.14F
WESTMINSTER*   MOSUNNY   82  68  61 S10       30.16F

$$

MDZ501>502-302100-
WESTERN MARYLAND

CITY           SKY/WX    TMP DP  RH WIND       PRES   REMARKS
OAKLAND*       MOSUNNY   79  61  53 W5        30.21F
CUMBERLAND*    SUNNY     97  61  30 NE3       30.11F HX  97

$$

VAZ025>031-302100-
SHENANDOAH VALLEY

CITY           SKY/WX    TMP DP  RH WIND       PRES   REMARKS
WINCHESTER*    SUNNY     82  70  65 SE9       30.12F
STAUNTON*      SUNNY     86  68  55 S10G16    30.16F

$$

WVZ021-048>050-054>055-302100-
EASTERN WEST VIRGINIA PANHANDLE

CITY           SKY/WX    TMP DP  RH WIND       PRES   REMARKS
MARTINSBURG    SUNNY     83  67  58 SE8       30.13F
PETERSBURG*    NOT AVBL

$$

VAZ036>039-050-302100-
CENTRAL FOOTHILLS

CITY           SKY/WX    TMP DP  RH WIND       PRES   REMARKS
CHARLOTTESVILL PTSUNNY   82  72  71 S7        30.15F
ORANGE*        CLOUDY    81  70  69 SE8       30.16F

$$

VAZ055>057-302100-
NORTH AND CENTRAL PIEDMONT

CITY           SKY/WX    TMP DP  RH WIND       PRES   REMARKS
FREDERICKSBRG* MOSUNNY   87  70  58 S7        30.13F HX  91
STAFFORD*      CLOUDY    82  72  70 S5        30.18F

$$

NCZ024-NYZ072-PAZ021-071-VAZ022-071-302100-
OTHER REGIONAL OBSERVATIONS

CITY           SKY/WX    TMP DP  RH WIND       PRES   REMARKS
NEW YORK CITY  CLOUDY    75  61  61 VRB7      30.22F
PHILADELPHIA   CLOUDY    80  62  54 S9        30.18F
PITTSBURGH     PTSUNNY   87  65  47 S10       30.06F
ROANOKE        MOSUNNY   86  68  54 S15       30.16F
RICHMOND       PTSUNNY   87  70  56 S9        30.15F HX  92
RALEIGH        MOSUNNY   88  70  55 S6        30.15F HX  93

$$

ANZ530>537-302100-
MARINE OBSERVATIONS

STATION/POSITION TIME  TEMP    WIND        PRES
                       AIR SEA DIR/SP/G
                 (UTC) (F)     (DEG/KT/KT) (MB)
THOMAS PT LIGHT  2000   78 78  170/ 13/ 14 1022.1F
BALT KEY BRIDGE  2000   84     130/ 10/ 11 1021.0F
COVE POINT       2000   77     170/ 14/ 16 1021.4S
LEWISETTA        2000   81 78  160/  9/ 12 1020.9F
SOLOMONS ISLAND  2000      79                N/A
PINEY POINT      2000          140/ 15/ 16   N/A

$$



USA.gov is the U.S. government's official web portal to all federal, state and local government web resources and services.